Weather History for Barter Island, AK

Change the Weather History Date:

Saturday, November 10, 2012

  Actual Average Record
Temperature  
Mean Temperature 19 °F -  
Max Temperature 19 °F 10 °F 39 °F (2013)
Min Temperature 17 °F 1 °F -15 °F (2004)
Degree Days  
Heating Degree Days 46    
Moisture  
Dew Point 19 °F    
Average Humidity 100    
Maximum Humidity 100    
Minimum Humidity 100    
Precipitation  
Precipitation 0.00 in - - ()
Sea Level Pressure  
Sea Level Pressure 29.88 in    
Wind  
Wind Speed 36 mph (West)    
Max Wind Speed 46 mph    
Max Gust Speed 54 mph    
Visibility 2 miles    
Events Fog , Snow    
Averages and records for this station are not official NWS values.
T = Trace of Precipitation, MM = Missing Value Source: NWS Daily Summary

Daily Weather History Graph

Daily Weather History Graph

Search for Another Location

Airport:

Trip Planner

Search our weather history database for the weather conditions in past years. The results will help you decide how hot, cold, wet, or windy it might be!

Date:

Astronomy

Nov. 10, 2012 Rise Set
Actual Time 9:59 AM AKST 2:35 PM AKST
Civil Twilight 8:30 AM AKST 4:05 PM AKST
Nautical Twilight 7:10 AM AKST 5:24 PM AKST
Astronomical Twilight 5:58 AM AKST 6:36 PM AKST
Moon 4:08 AM AKST (11/10) 2:17 PM AKST (11/10)
Length of Visible Light 7h 34m
Length of Day
4h 35m
Waning Crescent, 13% of the Moon is Illuminated
Nov 10
Waning Crescent
Nov 13
New
Nov 20
First Quarter
Nov 28
Full
Dec 6
Last Quarter

Hourly Weather History & Observations

Time (AKST) Temp. Windchill Dew Point Humidity Pressure Visibility Wind Dir Wind Speed Gust Speed Precip Events Conditions
12:01 AM 19.9 °F -0.1 °F 19.9 °F 100% 29.88 in 2.5 mi West 35.7 mph 43.7 mph 0.00 in   Overcast
12:09 AM 19.4 °F -1.8 °F 19.4 °F 100% 29.88 in 3.0 mi West 40.3 mph 43.7 mph 0.00 in   Overcast
1:01 AM 19.0 °F -1.3 °F 19.0 °F 100% 29.87 in 5.0 mi West 35.7 mph 43.7 mph 0.00 in   Overcast
1:44 AM 19.4 °F -1.6 °F 19.4 °F 100% 29.88 in 5.0 mi West 39.1 mph 44.9 mph 0.00 in   Overcast
2:01 AM 19.4 °F -1.1 °F 19.4 °F 100% 29.86 in 5.0 mi West 36.8 mph 46.0 mph 0.00 in Snow Light Snow
3:01 AM 19.0 °F -2.3 °F 19.0 °F 100% 29.85 in 5.0 mi West 40.3 mph 46.0 mph 0.00 in   Overcast
3:52 AM 19.4 °F -1.1 °F 19.4 °F 100% 29.84 in 4.0 mi West 36.8 mph 49.5 mph 0.00 in Snow Light Snow
4:01 AM 19.0 °F -2.3 °F 19.0 °F 100% 29.83 in 4.0 mi West 40.3 mph 49.5 mph 0.00 in   Overcast
5:01 AM 19.0 °F -2.5 °F 19.0 °F 100% 29.83 in 4.0 mi West 41.4 mph 52.9 mph 0.00 in Snow Blowing Snow
5:50 AM 19.4 °F -2.9 °F 19.4 °F 100% 29.83 in 2.5 mi West 46.0 mph 49.5 mph 0.00 in Snow Light Snow
6:01 AM 19.0 °F -3.2 °F 19.0 °F 100% 29.82 in 2.0 mi West 44.9 mph 54.1 mph 0.00 in Snow Light Snow
6:08 AM 19.4 °F -2.2 °F 19.4 °F 100% 29.83 in 1.2 mi West 42.6 mph 54.1 mph 0.00 in Snow Light Snow
6:32 AM 17.6 °F -5.0 °F 17.6 °F 100% 29.82 in 1.0 mi West 43.7 mph 50.6 mph 0.00 in Snow Light Snow
6:39 AM 17.6 °F -4.5 °F 17.6 °F 100% 29.81 in 0.8 mi West 41.4 mph 49.5 mph 0.00 in Snow Light Snow
6:51 AM 17.6 °F -4.5 °F 17.6 °F 100% 29.81 in 0.8 mi West 41.4 mph 49.5 mph 0.00 in Snow Light Snow
7:01 AM 18.0 °F -3.8 °F 18.0 °F 100% 29.82 in 1.0 mi West 40.3 mph 50.6 mph 0.00 in Snow Light Snow
7:05 AM 17.6 °F -4.3 °F 17.6 °F 100% 29.82 in 1.0 mi West 40.3 mph 47.2 mph 0.00 in Snow Light Snow
7:26 AM 17.6 °F -4.1 °F 17.6 °F 100% 29.82 in 0.8 mi West 39.1 mph 47.2 mph 0.00 in Snow Light Snow
7:39 AM 17.6 °F -4.1 °F 17.6 °F 100% 29.81 in 0.5 mi West 39.1 mph 48.3 mph 0.00 in Fog , Snow Snow
7:43 AM 17.6 °F -4.3 °F 17.6 °F 100% 29.81 in 0.8 mi West 40.3 mph 47.2 mph 0.00 in Snow Light Snow
7:58 AM 17.6 °F -4.3 °F 17.6 °F 100% 29.82 in 0.5 mi West 40.3 mph 48.3 mph 0.00 in Fog , Snow Snow
8:01 AM 17.6 °F -4.5 °F 17.6 °F 100% 29.82 in 0.5 mi West 41.4 mph 47.2 mph 0.00 in Fog , Snow Snow
8:19 AM 17.6 °F -4.3 °F 17.6 °F 100% 29.82 in 0.5 mi West 40.3 mph 47.2 mph 0.00 in Fog , Snow Snow
8:54 AM 17.6 °F -4.5 °F - N/A% 29.82 in 0.8 mi West 41.4 mph 48.3 mph 0.00 in Snow Light Snow
9:01 AM 18.0 °F -3.6 °F - N/A% 29.82 in 0.8 mi West 39.1 mph 48.3 mph 0.00 in Snow Light Snow
9:25 AM 17.6 °F -5.2 °F - N/A% 29.82 in 0.5 mi West 44.9 mph 51.8 mph 0.00 in Snow Snow
10:01 AM 17.6 °F -4.7 °F - N/A% 29.83 in 0.2 mi West 42.6 mph 51.8 mph 0.00 in Snow Heavy Snow
10:10 AM 17.6 °F -4.5 °F - N/A% 29.84 in 0.5 mi West 41.4 mph 49.5 mph 0.00 in Snow Snow
10:53 AM 17.6 °F -4.5 °F - N/A% 29.85 in 0.2 mi West 41.4 mph 48.3 mph 0.00 in Snow Heavy Snow
11:01 AM 18.0 °F -3.1 °F - N/A% 29.84 in 0.2 mi West 36.8 mph 49.5 mph 0.00 in Snow Heavy Snow
11:29 AM 17.6 °F -4.3 °F - N/A% 29.85 in 0.5 mi West 40.3 mph 48.3 mph 0.00 in Snow Snow
11:40 AM 17.6 °F -4.1 °F - N/A% 29.85 in 0.2 mi West 39.1 mph 48.3 mph 0.00 in Snow Heavy Snow
11:50 AM 19.4 °F -1.1 °F - N/A% 29.85 in 0.5 mi West 36.8 mph 48.3 mph 0.00 in Snow Snow
12:01 PM 19.0 °F -1.8 °F - N/A% 29.86 in 0.5 mi West 38.0 mph 47.2 mph 0.00 in Snow Snow
1:01 PM 19.0 °F -1.6 °F - N/A% 29.86 in 0.5 mi West 36.8 mph 47.2 mph 0.00 in Snow Snow
1:34 PM 19.4 °F -0.8 °F - N/A% 29.86 in 0.8 mi West 35.7 mph 44.9 mph 0.00 in Snow Light Snow
2:01 PM 19.0 °F -1.6 °F - N/A% 29.88 in 0.8 mi West 36.8 mph 43.7 mph 0.00 in Snow Light Snow
3:01 PM 19.0 °F -2.3 °F - N/A% 29.88 in 0.8 mi West 40.3 mph 44.9 mph 0.00 in Snow Light Snow
3:15 PM 19.4 °F -0.6 °F - N/A% 29.88 in 1.0 mi West 34.5 mph 41.4 mph 0.00 in Snow Blowing Snow
3:22 PM 19.4 °F -1.1 °F - N/A% 29.88 in 1.2 mi West 36.8 mph 43.7 mph 0.00 in Snow Blowing Snow
3:29 PM 19.4 °F -1.6 °F - N/A% 29.88 in 1.0 mi West 39.1 mph 44.9 mph 0.00 in Snow Blowing Snow
3:42 PM 19.4 °F -1.6 °F - N/A% 29.89 in 1.2 mi West 39.1 mph 43.7 mph 0.00 in Snow Blowing Snow
3:58 PM 19.4 °F -1.1 °F - N/A% 29.89 in 2.0 mi West 36.8 mph 40.3 mph 0.00 in Snow Blowing Snow
4:01 PM 19.0 °F -1.6 °F - N/A% 29.89 in 2.5 mi West 36.8 mph 43.7 mph 0.00 in Snow Blowing Snow
4:20 PM 19.4 °F -0.8 °F - N/A% 29.89 in 1.8 mi West 35.7 mph 41.4 mph 0.00 in Snow Light Snow
4:48 PM 19.4 °F -0.0 °F - N/A% 29.90 in 2.0 mi West 32.2 mph - 0.00 in Snow Light Snow
5:01 PM 19.0 °F -0.8 °F - N/A% 29.90 in 2.5 mi West 33.4 mph 39.1 mph 0.00 in Snow Light Snow
5:54 PM 19.4 °F -0.0 °F - N/A% 29.92 in 3.0 mi West 32.2 mph 39.1 mph 0.00 in Snow Light Snow
6:01 PM 19.9 °F 0.7 °F - N/A% 29.92 in 3.0 mi West 32.2 mph 38.0 mph 0.00 in Snow Light Snow
6:12 PM 19.4 °F -0.0 °F - N/A% 29.92 in 2.5 mi West 32.2 mph - 0.00 in Snow Light Snow
6:21 PM 19.4 °F 0.8 °F - N/A% 29.92 in 3.0 mi West 28.8 mph - 0.00 in Snow Light Snow
6:48 PM 19.4 °F 0.8 °F - N/A% 29.93 in 2.5 mi West 28.8 mph - 0.00 in Snow Light Snow
6:59 PM 19.4 °F 1.4 °F - N/A% 29.93 in 3.0 mi West 26.5 mph 34.5 mph 0.00 in Snow Light Snow
7:01 PM 19.9 °F 1.5 °F - N/A% 29.93 in 3.0 mi West 28.8 mph 33.4 mph 0.00 in Snow Light Snow
7:08 PM 19.4 °F 0.2 °F - N/A% 29.93 in 2.5 mi West 31.1 mph - 0.00 in Snow Light Snow
7:25 PM 19.4 °F 1.1 °F - N/A% 29.93 in 3.0 mi West 27.6 mph - 0.00 in Snow Light Snow
7:36 PM 19.4 °F 1.1 °F - N/A% 29.94 in 3.0 mi West 27.6 mph 33.4 mph 0.00 in Snow Light Snow
7:46 PM 19.4 °F 0.8 °F - N/A% 29.94 in 2.0 mi West 28.8 mph 32.2 mph 0.00 in Snow Light Snow
8:01 PM 19.9 °F 2.5 °F - N/A% 29.94 in 2.0 mi West 25.3 mph 29.9 mph 0.00 in Snow Light Snow
8:22 PM 19.4 °F 2.1 °F - N/A% 29.94 in 3.0 mi West 24.2 mph - 0.00 in Snow Light Snow
8:48 PM 21.2 °F 4.5 °F - N/A% 29.95 in 3.0 mi WNW 24.2 mph - 0.00 in Snow Light Snow
8:57 PM 21.2 °F 5.2 °F - N/A% 29.95 in 3.0 mi WNW 21.9 mph - 0.00 in Snow Light Snow
9:01 PM 21.0 °F 4.6 °F - N/A% 29.95 in 3.0 mi WNW 23.0 mph - 0.00 in Snow Light Snow
9:16 PM 21.2 °F 5.2 °F - N/A% 29.95 in 2.5 mi WNW 21.9 mph - 0.00 in Snow Light Snow
10:01 PM 21.0 °F 9.9 °F 21.0 °F 100% 29.96 in 4.0 mi North 10.4 mph - 0.00 in Snow Light Snow
10:35 PM 21.2 °F 10.9 °F 21.2 °F 100% 29.97 in 7.0 mi North 9.2 mph - 0.00 in Snow Light Snow
10:50 PM 19.4 °F 7.9 °F 19.4 °F 100% 29.97 in 7.0 mi NNE 10.4 mph - 0.00 in Snow Light Snow
10:59 PM 19.4 °F 8.6 °F 19.4 °F 100% 29.97 in 6.0 mi NNE 9.2 mph - 0.00 in Snow Light Snow
11:01 PM 19.9 °F 10.1 °F 19.9 °F 100% 29.97 in 6.0 mi NNE 8.1 mph - 0.00 in Snow Light Snow
11:47 PM 19.4 °F 6.0 °F 19.4 °F 100% 29.99 in 4.0 mi NE 13.8 mph - 0.00 in Snow Light Snow
11:59 PM 19.4 °F 7.2 °F 19.4 °F 100% 29.99 in 4.0 mi NNE 11.5 mph - 0.00 in Snow Light Snow